Rockford, IL

3:44 PM CDT on March 27, 2017 (GMT -0500)
Greater Rockford

Weather History for KRFD - October, 2013

Change the Weather History Date:

Tuesday, October 1, 2013

  Actual Average Record
Temperature  
Mean Temperature 70 °F 57 °F  
Max Temperature 84 °F 69 °F 90 °F (1971)
Min Temperature 55 °F 45 °F 28 °F (2003)
Degree Days  
Heating Degree Days 0 9  
Month to date heating degree days 0 9  
Since 1 July heating degree days 82 140  
Cooling Degree Days 5 1  
Month to date cooling degree days 5 1  
Year to date cooling degree days 879 812  
Growing Degree Days 20 (Base 50)    
Moisture  
Dew Point 59 °F    
Average Humidity 73    
Maximum Humidity 100    
Minimum Humidity 46    
Precipitation  
Precipitation 0.00 in 0.09 in 1.55 in (1926)
Month to date precipitation 0.00 0.09  
Year to date precipitation 33.61 29.10  
Snow  
Snow 0.00 in 0.00 in 0.00 in ()
Month to date snowfall 0.0 0.0  
Since 1 July snowfall 0.0 0.0  
Since 1 September snowfall 0.0 0.0  
Snow Depth 0.00 in    
Sea Level Pressure  
Sea Level Pressure 29.92 in    
Wind  
Wind Speed 9 mph (SSW)    
Max Wind Speed 22 mph    
Max Gust Speed 26 mph    
Visibility 9 miles    
Events Fog    
T = Trace of Precipitation, MM = Missing Value Source: NWS Daily Summary

Daily Weather History Graph

Daily Weather History Graph

Search for Another Location

Airport or City:

Trip Planner

Search our weather history database for the weather conditions in past years. The results will help you decide how hot, cold, wet, or windy it might be!

Date:

Astronomy

Oct. 01, 2013 Rise Set
Actual Time 6:53 AM CDT 6:37 PM CDT
Civil Twilight 6:25 AM CDT 7:05 PM CDT
Nautical Twilight 5:53 AM CDT 7:37 PM CDT
Astronomical Twilight 5:20 AM CDT 8:10 PM CDT
Moon 3:24 AM CDT (10/1) 4:43 PM CDT (10/1)
Length of Visible Light 12h 39m
Length of Day
11h 43m
Waning Crescent, 12% of the Moon is Illuminated
Oct 1
Waning Crescent
Oct 4
New
Oct 11
First Quarter
Oct 18
Full
Oct 26
Last Quarter

Hourly Weather History & Observations

Time (CDT) Temp. Heat Index Dew Point Humidity Pressure Visibility Wind Dir Wind Speed Gust Speed Precip Events Conditions
12:54 AM 57.0 °F - 52.0 °F 83% 29.90 in 10.0 mi WSW 3.5 mph - N/A   Clear
1:54 AM 55.9 °F - 53.1 °F 90% 29.91 in 10.0 mi South 5.8 mph - N/A   Clear
2:54 AM 57.0 °F - 54.0 °F 89% 29.91 in 8.0 mi South 4.6 mph - N/A Fog Shallow Fog
3:54 AM 57.0 °F - 55.0 °F 93% 29.90 in 8.0 mi South 3.5 mph - N/A   Mostly Cloudy
4:54 AM 57.0 °F - 55.0 °F 93% 29.90 in 7.0 mi South 8.1 mph - N/A   Partly Cloudy
5:54 AM 57.9 °F - 57.0 °F 97% 29.91 in 7.0 mi SSW 6.9 mph - N/A   Clear
6:54 AM 59.0 °F - 57.0 °F 93% 29.93 in 5.0 mi South 9.2 mph - N/A   Scattered Clouds
7:54 AM 60.1 °F - 57.9 °F 93% 29.94 in 5.0 mi SSW 9.2 mph - N/A   Mostly Cloudy
8:10 AM 60.8 °F - 59.0 °F 94% 29.94 in 5.0 mi SSW 8.1 mph - N/A   Overcast
8:54 AM 63.0 °F - 61.0 °F 93% 29.94 in 7.0 mi SSW 9.2 mph - N/A   Overcast
9:54 AM 66.0 °F - 62.1 °F 87% 29.95 in 7.0 mi SSW 11.5 mph - N/A   Overcast
10:09 AM 66.2 °F - 62.6 °F 88% 29.94 in 8.0 mi SSW 11.5 mph 20.7 mph N/A   Overcast
10:24 AM 68.0 °F - 62.6 °F 83% 29.94 in 8.0 mi SSW 17.3 mph 23.0 mph N/A   Mostly Cloudy
10:46 AM 69.8 °F - 62.6 °F 78% 29.94 in 10.0 mi SSW 16.1 mph - N/A   Scattered Clouds
10:54 AM 71.1 °F - 62.1 °F 73% 29.94 in 10.0 mi SSW 16.1 mph - N/A   Scattered Clouds
11:54 AM 75.0 °F - 61.0 °F 62% 29.92 in 10.0 mi SW 15.0 mph - N/A   Partly Cloudy
12:54 PM 78.1 °F - 61.0 °F 56% 29.91 in 10.0 mi SW 17.3 mph 24.2 mph N/A   Partly Cloudy
1:54 PM 81.0 °F 81.6 °F 60.1 °F 49% 29.88 in 10.0 mi SW 16.1 mph 25.3 mph N/A   Clear
2:54 PM 82.0 °F 82.1 °F 59.0 °F 45% 29.88 in 10.0 mi WSW 15.0 mph 26.5 mph N/A   Clear
3:54 PM 82.9 °F 83.2 °F 60.1 °F 46% 29.88 in 10.0 mi WSW 12.7 mph 20.7 mph N/A   Partly Cloudy
4:54 PM 82.9 °F 82.8 °F 59.0 °F 44% 29.88 in 10.0 mi WSW 12.7 mph 21.9 mph N/A   Scattered Clouds
5:54 PM 80.1 °F 80.9 °F 60.1 °F 50% 29.90 in 10.0 mi WSW 8.1 mph - N/A   Scattered Clouds
6:54 PM 77.0 °F - 60.1 °F 56% 29.91 in 10.0 mi SW 5.8 mph - N/A   Scattered Clouds
7:54 PM 73.9 °F - 60.1 °F 62% 29.92 in 10.0 mi SW 4.6 mph - N/A   Mostly Cloudy
8:54 PM 70.0 °F - 61.0 °F 73% 29.94 in 10.0 mi Calm Calm - N/A   Mostly Cloudy
9:54 PM 66.9 °F - 61.0 °F 81% 29.96 in 10.0 mi South 8.1 mph - N/A   Scattered Clouds
10:54 PM 66.0 °F - 60.1 °F 81% 29.97 in 10.0 mi South 4.6 mph - N/A   Scattered Clouds
11:54 PM 66.0 °F - 60.1 °F 81% 29.98 in 10.0 mi Calm Calm - N/A   Mostly Cloudy